Simultaneous Nadir Overpasses (SNOs) Predictions

Prediction of SNOs between NPP and GCOM-C Satellite Orbit:

Table of predicted SNOs for the next 14.0 days since TLE Epoch: 12/31/2021
Index Date (NPP) Time (NPP) Lat,Lon (NPP) SZA (NPP ) Date (GCOM-C) Time (GCOM-C) Lat,Lon (GCOM-C) SZA (GCOM-C ) Distance(km) Time Diff (sec)
1 01/02/2022 11:50:20 69.71, -0.57 92.54 01/02/2022 11:51:27 69.65, 1.59 92.44 83.67 67
2 01/02/2022 12:40:54 -69.21, 167.47 87.99 01/02/2022 12:42:06 -69.16, 168.28 88.05 32.06 72
3 01/02/2022 13:31:34 68.87, -24.75 91.67 01/02/2022 13:32:39 68.85, -24.77 91.64 2.69 65
4 01/02/2022 14:22:17 -68.85, 142.60 88.37 01/02/2022 14:23:09 -68.84, 142.60 88.38 0.43 52
5 01/02/2022 15:13:03 68.83, -50.07 91.61 01/02/2022 15:13:36 68.85, -50.01 91.63 3.31 33
6 01/02/2022 16:03:46 -68.80, 117.28 88.42 01/02/2022 16:04:07 -68.79, 117.29 88.43 1.62 21
7 01/02/2022 16:54:32 68.78, -75.38 91.56 01/02/2022 16:54:34 68.79, -75.32 91.57 2.94 2
8 01/02/2022 17:45:15 -68.76, 91.97 88.47 01/02/2022 17:45:05 -68.73, 91.98 88.49 2.83 10
9 01/02/2022 18:35:59 68.69,-100.63 91.46 01/02/2022 18:35:32 68.68,-100.70 91.46 2.72 27
10 01/02/2022 19:26:42 -68.66, 66.72 88.57 01/02/2022 19:26:02 -68.68, 66.68 88.55 2.74 40
11 01/02/2022 20:17:28 68.64,-125.95 91.41 01/02/2022 20:16:30 68.63,-126.00 91.40 2.73 58
12 01/02/2022 21:08:11 -68.62, 41.40 88.62 01/02/2022 21:07:00 -68.63, 41.37 88.61 1.69 71
13 01/02/2022 21:58:47 68.06,-150.57 90.81 01/02/2022 21:57:37 68.09,-151.94 90.86 56.87 70



Historial Predications of SNOs between NPP and GCOM-C
